Regional Weather Roundup
Issued by NWS

Home | Current Version | Previous Version | Text Only | Print | Product List | Glossary Off
Versions: 1 2 3 4 5 6 7 8 9 10 11 12 13 14 15 16 17 18 19 20 21 22 23 24 25 26 27 28 29 30 31 32 33 34 35 36 37 38 39 40 41 42 43 44 45 46 47 48 49 50

000
ASUS44 KMEG 041910
RWRTN
TENNESSEE HOURLY STATE WEATHER ROUNDUP
NATIONAL WEATHER SERVICE MEMPHIS TN
200 PM CDT WED MAY 04 2016

TNZ002-004-019-021-049-052-054-088>092-042000-
WEST TENNESSEE

CITY           SKY/WX    TMP DP  RH WIND       PRES   REMARKS
MEMPHIS INTL   PTSUNNY   76  52  43 W16G26    29.78F
NWS MEMPHIS      N/A     74 N/A N/A MISG        N/A
JACKSON        CLOUDY    72  50  45 NW20G26   29.75F
DYERSBURG      MOSUNNY   72  48  43 NW14G21   29.76S
UNION CITY     MOSUNNY   68  50  52 NW12      29.75F
LEXINGTON      MOSUNNY   72  46  40 W14       29.71F
$$

TNZ008-025-027-028-033-062-065-066-042000-
NORTH MIDDLE TENNESSEE

CITY           SKY/WX    TMP DP  RH WIND       PRES   REMARKS
NASHVILLE      LGT RAIN  62  48  60 NW10G22   29.73R FOG
CLARKSVILLE    PTSUNNY   62  51  67 NW18      29.74S
SMYRNA         CLOUDY    69  47  45 W12       29.71F
COOKEVILLE     PTSUNNY   66  48  52 SW8       29.71F
CROSSVILLE     CLOUDY    62  40  44 W9        29.74F
$$

TNZ061-075-076-078-094-096-097-042000-
SOUTH MIDDLE TENNESSEE

CITY           SKY/WX    TMP DP  RH WIND       PRES   REMARKS
FAYETTEVILLE   MOSUNNY   70  45  40 SW14      29.75F
TULLAHOMA      MOSUNNY   68  43  40 W9        29.75F
WINCHESTER     PTSUNNY   66  45  45 W8        29.75F
MCMINNVILLE    MOSUNNY   68  46  45 SW10      29.73F
COLUMBIA       PTSUNNY   72  50  46 W13       29.70F
SHELBYVILLE    CLOUDY    72  46  40 W12       29.73F
$$

TNZ017-018-042-046-047-042000-
NORTHEAST TENNESSEE

CITY           SKY/WX    TMP DP  RH WIND       PRES   REMARKS
TRI CITIES     PTSUNNY   62  41  46 SW12G17   29.71F
$$

TNZ012-013-036-069-073-074-042000-
CENTRAL EAST TENNESSEE

CITY           SKY/WX    TMP DP  RH WIND       PRES   REMARKS
KNOXVILLE      MOSUNNY   66  42  41 SW12      29.73F
OAK RIDGE      MOSUNNY   69  40  34 SW9       29.73F
GATLINBURG     CLOUDY    64  37  36 W7        29.73F
MORRISTOWN     CLOUDY    64  39  39 W10       29.72F
$$

TNZ083-085-099-042000-
SOUTHEAST TENNESSEE

CITY           SKY/WX    TMP DP  RH WIND       PRES   REMARKS
CHATTANOOGA    PTSUNNY   70  39  32 W7        29.75F
$$

SKY/WX REPORTED AS FAIR MEANS FEW OR NO CLOUDS BELOW
12 THOUSAND FEET.





USA.gov is the U.S. government's official web portal to all federal, state and local government web resources and services.